Location: De Greiden
(52.9496°N, 5.9137°E)
Time: 00:13:24
(UTC+00:00)

H-2A R/B - Pass Details

Date: 24 January 2021
Orbit: 734 x 836 km, 98.2° (Epoch: 26 February)

Event Time Altitude Azimuth Distance (km) Brightness Sun altitude
Rises 19:27:20 0° 203° (SSW) 3,194 5.4 -29.9°
Reaches altitude 10° 19:30:03 10° 218° (SW) 2,289 4.8 -30.3°
Maximum altitude 19:34:02 23° 270° (W) 1,598 4.3 -30.9°
Drops below altitude 10° 19:38:07 10° 323° (NW) 2,354 5.0 -31.5°
Sets 19:40:58 0° 337° (NNW) 3,308 5.7 -31.9°
